TimeCDT,TemperatureF,Dew PointF,Humidity,Sea Level PressureIn,VisibilityMPH,Wind Direction,Wind SpeedMPH,Gust SpeedMPH,PrecipitationIn,Events,Conditions,WindDirDegrees,DateUTC
12:53 AM,57.9,45.0,62,29.88,10.0,NE,4.6,-,N/A,,Clear,40,2012-10-01 05:53:00
1:53 AM,57.0,45.0,64,29.87,10.0,ENE,4.6,-,N/A,,Clear,60,2012-10-01 06:53:00
2:53 AM,55.0,44.1,67,29.86,10.0,Calm,Calm,-,N/A,,Clear,0,2012-10-01 07:53:00
3:53 AM,55.0,44.1,67,29.86,10.0,Calm,Calm,-,N/A,,Clear,0,2012-10-01 08:53:00
4:53 AM,54.0,44.1,69,29.86,10.0,North,4.6,-,N/A,,Clear,360,2012-10-01 09:53:00
5:53 AM,51.1,43.0,74,29.87,10.0,NNE,3.5,-,N/A,,Clear,20,2012-10-01 10:53:00
6:53 AM,51.1,44.1,77,29.88,10.0,North,3.5,-,N/A,,Clear,10,2012-10-01 11:53:00
7:53 AM,50.0,44.1,80,29.88,10.0,North,4.6,-,N/A,,Clear,10,2012-10-01 12:53:00
8:53 AM,54.0,46.9,77,29.89,10.0,NE,3.5,-,N/A,,Clear,40,2012-10-01 13:53:00
9:53 AM,59.0,46.9,64,29.89,10.0,Calm,Calm,-,N/A,,Clear,0,2012-10-01 14:53:00
10:53 AM,63.0,48.9,60,29.88,10.0,Calm,Calm,-,N/A,,Clear,0,2012-10-01 15:53:00
11:53 AM,66.0,48.9,54,29.88,10.0,NNW,3.5,-,N/A,,Clear,340,2012-10-01 16:53:00
1:53 PM,71.1,46.9,42,29.85,10.0,NNE,8.1,-,N/A,,Clear,20,2012-10-01 18:53:00
2:53 PM,73.0,48.0,41,29.84,10.0,NNE,11.5,-,N/A,,Clear,20,2012-10-01 19:53:00
3:53 PM,73.9,48.0,40,29.83,10.0,NNE,13.8,21.9,N/A,,Clear,30,2012-10-01 20:53:00
4:53 PM,73.9,46.9,38,29.83,10.0,North,16.1,20.7,N/A,,Clear,360,2012-10-01 21:53:00
5:53 PM,71.1,45.0,39,29.84,10.0,North,11.5,-,N/A,,Clear,360,2012-10-01 22:53:00
6:53 PM,69.1,39.9,35,29.86,10.0,NNW,12.7,21.9,N/A,,Clear,340,2012-10-01 23:53:00
7:53 PM,66.0,35.1,32,29.87,10.0,North,15.0,-,N/A,,Clear,350,2012-10-02 00:53:00
8:53 PM,63.0,34.0,34,29.89,10.0,North,11.5,-,N/A,,Clear,350,2012-10-02 01:53:00
9:53 PM,60.1,35.1,39,29.89,10.0,NNW,9.2,-,N/A,,Clear,340,2012-10-02 02:53:00
10:53 PM,59.0,37.0,44,29.90,10.0,North,12.7,-,N/A,,Clear,350,2012-10-02 03:53:00
11:53 PM,57.0,37.9,49,29.89,10.0,North,11.5,-,N/A,,Clear,350,2012-10-02 04:53:00